Location: Kawakawa
(35.3830°S, 174.0670°E)
Time: 16:16:05
(UTC+13:00)

Cosmos 1980 Rocket - Pass Details

Date: 24 January 2019
Orbit: 828 x 851 km, 71.0° (Epoch: 20 February)

Event Time Altitude Azimuth Distance (km) Brightness Sun altitude
Rises 21:00:49 0° 334° (NNW) 3,405 5.3 -5.1°
Reaches altitude 10° 21:03:16 10° 332° (NNW) 2,476 4.7 -5.5°
Maximum altitude 21:08:57 71° 248° (WSW) 903 2.6 -6.5°
Drops below altitude 10° 21:14:42 10° 163° (SSE) 2,497 4.8 -7.5°
Sets 21:17:10 0° 161° (SSE) 3,436 5.5 -8.0°
